Regional Weather Roundup
Issued by NWS Wakefield, VA

Home | Current Version | Previous Version | Graphics & Text | Print | Product List | Glossary On
Versions: 1 2 3 4 5 6 7 8 9 10 11 12 13 14 15 16 17 18 19 20 21 22 23 24 25 26 27 28 29 30 31 32 33 34 35 36 37 38 39 40 41 42 43 44 45 46 47 48 49 50
000
ASUS41 KAKQ 030210
RWRAKQ

REGIONAL WEATHER ROUNDUP
NATIONAL WEATHER SERVICE WAKEFIELD VA
900 PM EST MON MAR 02 2015

Note: "fair" indicates few or no clouds below 12,000 feet with no
significant weather and/or obstructions to visibility. * = Denotes
station may not report precipitation (e.g., rain,snow,etc.),
thunder or fog.

VAZ042-051-052>054-056-030300-
NORTHERN VIRGINIA

CITY           SKY/WX    TMP DP  RH WIND       PRES   REMARKS
WASH NATIONAL  PTCLDY    36  16  44 N9        30.42R
DULLES         PTCLDY    32  15  49 N6        30.42R
FORT BELVOIR   CLEAR     35  16  45 N5        30.42R
QUANTICO       CLEAR     35  18  49 NE9       30.42R
FREDERICKSBRG* CLEAR     37  18  46 N7        30.39S
STAFFORD*      CLEAR     34  13  42 N7        30.44R
WARRENTON      CLEAR     34  22  61 CALM      30.40R
CULPEPER*      CLEAR     34  18  51 NE5       30.40R
MANASSAS*      NOT AVBL
LEESBURG*      CLEAR     32  19  59 N8        30.42R
WINCHESTER     CLEAR     32  12  43 NW7       30.40R
FRONT ROYAL*   FAIR      32  14  47 CALM      30.38S
LURAY*         FAIR      36  19  51 N9        30.38R
$$

VAZ048-049-060>072-079>083-030300-
CENTRAL AND SOUTH CENTRAL VIRGINIA

CITY           SKY/WX    TMP DP  RH WIND       PRES   REMARKS
RICHMOND       CLOUDY    39  16  39 CALM      30.38R
CHESTERFIELD*  FAIR      39  14  35 E5        30.39R
PETERSBURG*    MOCLDY    41  20  43 NE7       30.38R
HANOVER        PTCLDY    32  21  64 CALM      30.40R
TAPPAHANNOCK*  PTCLDY    37  13  37 NE3       30.38R
QUINTON*       FAIR      35  19  51 N5        30.38S
CHARLOTTSVILLE PTCLDY    38  15  39 E3        30.36R
GORDONSVILLE*  FAIR      32  19  60 NE3       30.38R
ORANGE*        CLEAR     36  19  51 CALM      30.40R
LOUISA*        PTCLDY    36  18  48 NE3       30.37R
BUMPASS*       FAIR      37  17  44 NE3       30.37R
FARMVILLE*     MOCLDY    41  19  41 N7        30.35R
CREWE*         FAIR      41  23  48 E3        30.36R
FORT PICKETT*  FAIR      39  29  66 E7        30.36R
CHASE CITY*    FAIR      38  28  69 CALM      30.33R
CLARKSVILLE*   FAIR      43  36  75 CALM      30.32R
SOUTH HILL*    MOCLDY    36  35  96 CALM      30.40R
LAWRENCEVILLE* FAIR      40  34  80 CALM      30.35R
EMPORIA*       PTCLDY    37  32  81 NE3       30.38R
$$

VAZ088>098-030300-
SOUTHEAST VIRGINIA

CITY           SKY/WX    TMP DP  RH WIND       PRES   REMARKS
NORFOLK        MOCLDY    36  23  59 NE9       30.37R
VIRGINIA BEACH MOCLDY    37  23  56 NE9       30.37R
NORFOLK NAVAL  MOCLDY    39  22  50 NE12      30.39R
WEST POINT*    CLEAR     31  23  72 CALM      30.40R
SALUDA*        FAIR      29  22  74 CALM      30.38R
NEWPORT NEWS   MIX PCPN  32  25  75 CALM      30.39R
LANGLEY AFB    PTCLDY    32  25  75 NE6       30.38R
FORT EUSTIS    PTCLDY    35  28  75 E2        30.36R
WILLIAMSBURG*  FAIR      36  28  75 CALM      30.39S
HR EXEC AP*    FAIR      36  19  51 NE6       30.40R
FRANKLIN*      PTCLDY    35  26  71 CALM      30.38R
WAKEFIELD      MOCLDY    33  28  81 CALM      30.38R
$$

VAZ020-022-025-037-045-030300-
WEST CENTRAL AND SOUTHWEST VIRGINIA

CITY           SKY/WX    TMP DP  RH WIND       PRES   REMARKS
STAUNTON*      CLEAR     32  13  44 CALM      30.38R
WAYNESBORO*    FAIR      34  11  38 N6        30.34R
HOT SPRINGS VA MOCLDY    27  12  52 NW10      30.24F WCI  17
LYNCHBURG      MOCLDY    33  21  61 N3        30.36R
DANVILLE       MOCLDY    41  22  46 CALM      30.34R
SOUTH BOSTON*  FAIR      42  19  38 NW5       30.33R
MARTINSVILLE   PTCLDY    43  16  33 N7        30.35S
ROANOKE        MOCLDY    40  15  36 NW8       30.37R
BLACKSBURG     MOCLDY    34  15  46 N3        30.36R
DUBLIN*        MOCLDY    36  17  45 N5        30.34S
MARION*        PTCLDY    33  23  66 CALM      30.34S
HILLSVILLE*    PTCLDY    35  20  55 N7        30.30S
RICHLANDS*     FAIR      33  19  54 CALM      30.31S
WISE*          PTCLDY    34  21  60 E3        30.31F
ABINGDON*      CLEAR     35  26  67 E3        30.32S
$$

MDZ021>025-VAZ099-100-030300-
SOUTHERN MARYLAND AND THE DELMARVA PENINSULA

CITY           SKY/WX    TMP DP  RH WIND       PRES   REMARKS
PATUXENT RIVER CLEAR     33  19  56 NW8       30.39R
BAY BRIDGE APT   N/A     32  18  55 NW10      30.41R WCI  24
LEONARDTOWN    CLEAR     34  16  47 CALM      30.41R
DOVER          CLEAR     32  17  52 NW8       30.38R
GEORGETOWN     CLEAR     31  18  58 CALM      30.39R
EASTON         CLEAR     34  19  55 NW8       30.43R
CAMBRIDGE      CLEAR     36  19  51 NW7       30.39R
SALISBURY      CLEAR     33  18  53 NW7       30.38R
OCEAN CITY     CLEAR     32  17  54 CALM      30.38R
WALLOPS ISLAND CLEAR     31  17  56 N5        30.39R
ACCOMACK*      CLEAR     36  16  44 N7        30.38R
$$

NCZ012>017-030>032-030300-
NORTH CENTRAL AND EASTERN NORTH CAROLINA

CITY           SKY/WX    TMP DP  RH WIND       PRES   REMARKS
ROANOKE RAPIDS FAIR      37  36  93 CALM      30.34S
RALEIGH        PTCLDY    44  24  45 CALM      30.32R
ELIZABETH CITY MOCLDY    38  27  64 NE7       30.37R
AHOSKIE*       MOCLDY    41  29  62 NE6       30.37R
EDENTON*       MOCLDY    38  33  82 NE5       30.36S
CURRITUCK*     MOCLDY    39  23  51 NE6       30.38R
KILL DEVIL HLS MOCLDY    37  29  71 NE6       30.35S
MANTEO         MOCLDY    39  27  60 NE14      30.36S
CAPE HATTERAS  PTCLDY    40  29  64 NE9       30.35S
TARBORO*       FAIR      45  39  79 E6        30.36R
GOLDSBORO      CLEAR     48  47  98 E9        30.31R
WASHINGTON     PTCLDY    40  32  74 E6        30.36R
GREENVILLE     MOCLDY    45  37  76 E7        30.36R
NEW BERN       CLEAR     41  33  73 E6        30.36R
WILMINGTON     CLOUDY    48  40  73 E8G21     30.32S
$$

VAZ048-030300-
ELSEWHERE

CITY           SKY/WX    TMP DP  RH WIND       PRES   REMARKS
HARRISBURG PA  FAIR      27  14  58 NW10      30.37S WCI  17
BALTIMORE      PTCLDY    31  15  52 NW8       30.39R
ANNAPOLIS      CLEAR     33  17  51 NW8       30.41R
ANDREWS AFB    CLEAR     33  15  48 NW9       30.39R
PHILADELPHIA   PTCLDY    32  16  51 W10       30.35R WCI  24
HENDERSON NC   PTCLDY    40  32  73 CALM      30.33R
GREENSBORO     PTCLDY    45  15  30 NE6       30.31R
ROCKY MOUNT    MOCLDY    45  39  79 NE5       30.34R
$$

VAZ100-030300-
MARINE

STATION/POSITION TIME  TEMP    WIND        PRES    WAVE   SWELL
                       AIR SEA DIR/SP/G            HT/PER HT/PER
                 (UTC) (F)     (DEG/KT/KT) (MB)    (FT/S) (FT/S)
BRANDYWINE LGT   0200   34 30                N/A
CAPE MAY NJ      0200   32 34                N/A
LEWES DE         0200   32 30                N/A
15NM E FENWICK I 0200   35 35              1027.9R   2/ 4
OCEAN-CITY-INLET 0200   35 32                N/A
WACHAPREAGUE VA  0200   36 36                N/A
THOMAS POINT MD  0200   35 32  320/  9/ 10 1030.8R
COVE POINT MD    0200   34                   N/A
SOLOMONS ISLAND  0200      33                N/A
BISHOPS HEAD MD  0200   35 34                N/A
CAMBRIDGE MD     0200   35 32                N/A
LEWISETTA VA     0200   36 33                N/A
RAPPAHANNOCK LGT 0100                      1028.6R
STINGRAY PT      0200   34 32   30/  6/  8   N/A     1/ 3
YORK RVR RNG VA  0200   35                   N/A
YORKTOWN VA      0200   34 34                N/A
DOMINION TERM VA 0200   38                   N/A
KIPTOPEKE VA     0200      38                N/A
CHES BAY BRIDGE  0200   38 33                N/A
CAPE HENRY VA    0200   37                   N/A
CHESAPEAKE LGHT  0100   38      20/  6/  7 1029.0R
WILLOUBY STN VA  0200   35                   N/A
S CRANEY ISL VA  0100                      1028.4R
CAPE HENRY BUOY  0200      35                N/A     2/ 8
1ST LANDING BUOY 0200   36 33   50/  6/  6 1028.3S   1/ 4
OFFSHORE WE BUOY 0200      37                N/A     2/ 5   2/ 5
64NM E OF VA BCH 0200   45 54  350/ 19/ 25 1027.6R   4/ 5
DUCK PIER NC     0200   38 35                N/A
44100 DUCK FRF   0100      37                N/A     3/ 4
44056 DUCK FRF   0200      34                N/A     3/ 4
OREGON INLET NC  0200   38 44                N/A
HATTERAS NC      0200   41 44                N/A
CAPE LOOKOUT NC  0100   45      50/ 25/ 27 1026.8R
$$



USA.gov is the U.S. government's official web portal to all federal, state and local government web resources and services.